RH
26 27 27 25 23 22 22 19 20 23 23 22 19 21 22 27 37 53 71 85 92 96 97 89 78 57 41 30 24 25 27 29 29 29 33 33 32 30 27 24 22 22 24
31 29 26 25 24 23 23 22 23 25 28 25 24 22 23 27 33 39 52 89 86 94 88 93 88 78 59 43 35 29 27 29 29 29 30 32 31 30 28 26 24 22 21
32 28 26 26 25 25 24 26 29 30 31 30 28 30 32 32 31 31 35 53 77 91 97 96 92 87 75 56 42 35 30 26 28 29 26 31 30 29 29 26 24 22 21
30 28 27 26 26 26 27 31 33 34 35 37 33 34 34 33 34 40 37 41 49 62 92 97 94 86 83 71 56 44 37 31 27 29 29 26 26 29 29 28 26 26 25
27 28 28 29 28 29 30 34 37 38 36 39 42 40 36 37 40 41 48 51 55 58 78 91 96 93 90 86 76 58 48 38 36 31 30 29 26 26 25 26 26 27 27
30 31 32 33 32 33 36 38 40 43 38 38 45 46 43 42 45 45 49 56 51 68 75 71 81 91 89 85 83 77 66 58 46 40 36 33 28 26 26 26 28 30 31
32 35 37 37 37 39 41 43 44 46 46 46 52 50 49 53 48 50 54 58 54 60 62 82 70 89 93 89 84 79 70 67 55 47 46 45 39 31 31 29 31 33 36
35 41 42 40 42 45 48 47 49 51 53 54 55 58 57 58 58 59 57 60 61 66 70 72 83 85 92 91 87 84 78 76 68 63 57 49 45 41 41 36 37 40 40
42 46 49 44 43 45 49 52 54 59 57 63 64 64 73 80 69 72 71 66 63 74 78 70 85 78 86 88 89 86 79 71 68 58 56 57 53 49 44 43 44 46 46
46 56 56 59 64 63 60 58 64 63 65 68 67 69 75 73 79 74 68 67 69 75 84 77 81 84 86 81 77 74 75 71 65 65 65 62 60 59 56 56 63 66 71
51 60 58 53 55 63 72 75 77 70 67 72 73 72 69 74 78 78 80 75 73 92 93 89 87 87 76 75 78 77 73 70 70 70 68 64 59 60 71 75 76 77 80
61 63 55 53 54 53 62 77 89 76 67 73 80 78 82 76 84 83 79 76 78 95 86 98 89 92 85 82 87 81 83 78 73 68 67 68 72 79 81 86 82 68 67
68 66 63 58 53 58 73 89 95 76 67 75 93 97 83 78 82 83 77 88 91 95 96 98 98 96 92 82 77 72 70 67 69 71 76 81 83 89 84 82 75 73 66
74 70 66 56 54 67 91 90 83 77 69 77 92 97 92 86 83 85 84 95 97 98 98 98 98 97 93 88 81 81 79 77 78 78 84 91 95 90 84 74 63 57 49
80 81 66 57 56 81 92 80 79 80 72 77 89 97 98 92 92 94 93 96 98 98 98 97 97 95 94 92 88 84 81 81 88 93 98 94 80 71 66 59 53 50 52
82 88 67 59 56 80 96 84 80 87 85 78 92 96 98 97 98 98 98 98 97 97 98 98 98 98 95 92 87 91 93 97 98 91 76 69 64 58 53 48 49 49 45
79 83 66 59 59 77 98 93 93 94 92 82 93 93 98 98 98 97 97 98 98 98 98 98 97 98 97 98 98 98 98 95 82 70 66 63 60 60 60 56 52 48 44
76 78 68 59 66 78 98 98 94 96 98 91 94 98 99 98 98 98 98 97 97 97 98 98 98 98 98 98 98 98 90 76 74 74 70 69 64 61 60 55 49 42 39
69 75 69 66 73 77 98 98 96 97 95 94 95 98 98 98 98 97 97 98 97 97 97 98 98 98 98 98 92 85 82 80 74 70 68 67 66 58 54 49 42 39 34
69 75 83 82 83 75 93 98 97 93 96 93 93 95 98 97 98 99 98 97 98 98 98 98 98 98 97 94 87 81 75 72 68 68 68 63 59 56 46 41 36 31 27
78 83 88 86 83 83 73 97 98 93 93 95 96 98 98 98 98 96 98 97 98 99 99 99 98 96 91 83 74 72 67 65 68 66 63 62 55 45 39 34 29 23 21
83 86 92 93 88 89 78 90 98 93 93 94 94 94 95 98 98 98 98 98 98 98 98 98 92 89 79 71 69 65 68 68 67 65 65 56 45 39 34 28 22 21 22
79 87 94 96 93 90 88 82 98 99 99 95 94 96 98 99 99 98 98 99 99 98 98 97 91 81 77 75 69 67 67 69 70 67 58 47 39 32 27 24 24 25 26
74 79 89 90 95 94 97 88 85 98 98 99 99 98 98 97 97 98 98 98 98 98 97 91 84 80 71 65 67 70 71 73 68 58 48 38 31 27 27 28 28 28 27
73 76 78 91 97 96 97 97 91 86 94 98 98 98 98 98 97 98 98 98 98 96 93 84 73 69 68 69 71 75 74 68 60 47 37 31 29 30 32 32 31 29 28
71 72 74 83 94 96 98 98 96 94 90 92 97 98 98 98 98 98 98 97 97 91 78 71 69 65 66 73 78 74 69 59 46 38 34 33 33 35 35 34 32 30 30